Flag for Germany Weather past 2 weeks in Neuburg an der Donau, Bavaria, Germany

Now
61 °F

Cool.


Feels Like: 61 °F
Forecast: 54 / 66 °F
Wind: 1 mph from North

Location: Neuburg / Donau

Current Time: Sep 1, 2015 at 7:03:07 AM

Latest Report: Sep 1, 2015 at 5:20 AM


Visibility: N/A

Pressure: 29.89 "Hg

Humidity: 77%

Dew point: 54 °F

Location of Neuburg an der DonauLocation

Historic Weather in Neuburg an der Donau — Graph

°F

Neuburg an der Donau temperature yesterday

Maximum temperature yesterday: 91 °F (at 3:20 PM)
Minimum temperature yesterday: 61 °F (at 6:20 AM)
Average temperature yesterday: 76 °F

Past Weeks' High & Low Weather Summary

 TemperatureHumidityPressure
High91 °F (Aug 30, 4:20 PM)100% (Aug 17, 11:20 PM)30.30 "Hg (Aug 17, 11:20 PM)
Low45 °F (Aug 26, 5:20 AM)28% (Aug 26, 5:20 PM)29.71 "Hg (Aug 24, 3:20 PM)
Average66 °F69%30.04 "Hg
* Reported Aug 17 5:20 AM — Sep 1 5:20 AM, Neuburg an der Donau, Weather by CustomWeather, © 2015

Note: Actual official high and low records may vary slightly from our data, if they occured in-between our weather recording intervals... More about our weather records

Advertising

Neuburg an der Donau weather history for previous 24 hours

 ConditionsComfort  
Time TempWeatherWind HumidityBarometerVisibility
5:20 AM
Tue, Sep 1
61 °FCool.1 mph77%29.89 "HgN/A
4:20 AM63 °FMild.2 mph73%29.89 "HgN/A
3:20 AM66 °FMild.5 mph64%29.89 "HgN/A
2:20 AM66 °FMild.3 mph60%29.89 "HgN/A
1:20 AM64 °FMild.2 mph60%29.89 "HgN/A
12:20 AM68 °FMild.1 mph53%29.89 "HgN/A
11:20 PM
Mon, Aug 31
70 °FMild.3 mph46%29.89 "HgN/A
10:20 PM72 °FMild.1 mph44%29.89 "HgN/A
9:20 PM77 °FPleasantly warm.6 mph39%29.89 "HgN/A
8:20 PM81 °FWarm.6 mph42%29.89 "HgN/A
7:20 PM88 °FPleasantly warm.7 mph31%29.89 "HgN/A
6:20 PM91 °FHot.8 mph32%29.89 "HgN/A
5:20 PM90 °FPassing clouds.7 mph33%29.89 "HgN/A
4:20 PM91 °FPassing clouds.7 mph34%29.92 "HgN/A
3:20 PM91 °FPassing clouds.5 mph34%29.92 "HgN/A
2:20 PM90 °FPassing clouds.6 mph38%29.95 "HgN/A
1:20 PM88 °FPassing clouds.6 mph40%29.95 "HgN/A
12:20 PM84 °FPassing clouds.6 mph45%29.98 "HgN/A
11:20 AM81 °FPassing clouds.10 mph51%30.01 "HgN/A
10:20 AM79 °FPassing clouds.10 mph54%30.01 "HgN/A
9:20 AM73 °FPassing clouds.3 mph69%30.01 "HgN/A
8:20 AM70 °FPassing clouds.2 mph78%30.01 "HgN/A
7:20 AM64 °FPassing clouds.1 mph88%30.04 "HgN/A
Weather by CustomWeather, © 2015

See weather overviewHow to use our weather pages